Location: Czekan�w
(50.3488°N, 18.7344°E)
Time: 06:48:59
(UTC+00:00)

COSMOS 2455 - Pass Details

Date: 17 February 2020
Orbit: 901 x 909 km, 67.1° (Epoch: 09 April)

Event Time Altitude Azimuth Distance (km) Brightness Sun altitude
Exits shadow 04:50:03 - 323° (NW) 3,432 5.5 -10.8°
Reaches altitude 10° 04:52:33 10° 333° (NNW) 2,600 4.9 -10.4°
Maximum altitude 04:57:53 32° 35° (NE) 1,527 4.4 -9.5°
Drops below altitude 10° 05:03:12 10° 97° (E) 2,594 7.0 -8.7°
Sets 05:06:00 0° 108° (ESE) 3,534 8.2 -8.3°
